Voltar ao catálogo

ONEWEB-0018

AtivoComunicaçõesPO
NORAD 45434·PAYLOAD·🇬🇧 United Kingdom

Lançado Mar 21, 2020 de Baikonur Cosmodrome

Loading…

Próximas Passagens (próximas 24 horas)

TLE

AtualizadoSource: CelesTrak SupGP

Época: Sep 14, 2026, 23:08 UTC

1 45434C 20020L   26257.96406667 -.00002860  00000+0 -80793-2 0  2573
2 45434  87.8974   3.2190 0002134  95.1142   5.4911 13.11420614    16

Acompanhe ONEWEB-0018 em tempo real com AllMySat

Download on the App Store